AirNav   Air Wisconsin pilot careers
 
 975 users online  

L05 Kern Valley Airport
Kernville, California, USA


FAA INFORMATION EFFECTIVE 01 FEBRUARY 2018

Location

FAA Identifier: L05
Lat/Long: 35-43-41.6000N / 118-25-11.0000W
35-43.693333N / 118-25.183333W
35.7282222 / -118.4197222
(estimated)
Elevation: 2614 ft. / 796.7 m (surveyed)
Variation: 14E (1985)
From city: 3 miles S of KERNVILLE, CA
Time zone: UTC -8 (UTC -7 during Daylight Saving Time)
Zip code: 93238

Airport Operations

Airport use: Open to the public
Activation date: 07/1949
Control tower: no
ARTCC: LOS ANGELES CENTER
FSS: RANCHO MURIETA FLIGHT SERVICE STATION
NOTAMs facility: RIU (NOTAM-D service available)
Attendance: DAYLIGHT HOURS
Pattern altitude: 3614 ft. MSL
Wind indicator: yes
Segmented circle: yes

Airport Communications

CTAF/UNICOM: 122.8

Nearby radio navigation aids

VOR radial/distance  VOR name  Freq  Var
TTEr095/31.3TULE VOR/DME109.2016E
EHFr052/36.1SHAFTER VORTAC115.4014E

Airport Services

Parking: tiedowns
Airframe service: MINOR
Powerplant service: MINOR
Bottled oxygen: NONE
Bulk oxygen: NONE

Runway Information

Runway 17/35

Dimensions: 3500 x 50 ft. / 1067 x 15 m
Surface: asphalt, in good condition
Weight bearing capacity: 
Single wheel: GROSS RWY PAVEMENT STRENGTH ESTIMATE PRVDD BY ARPT MANAGER; 12500 LBS.
RUNWAY 17  RUNWAY 35
Latitude: 35-43.980500N35-43.405333N
Longitude: 118-25.154333W118-25.211000W
Gradient: 0.2%0.2%
Traffic pattern: rightleft
Markings: basic, in good conditionbasic, in good condition
Runway end identifier lights: nono
Obstructions: 10 ft. trees, 375 ft. from runway, 100 ft. right of centerline, 17:1 slope to clearnone
RWY 35 +1 FT ROCKS O-90 FT FM EOR 50 FT L TO 80 FT R PRVDG WASHOUT PROTECTION FM LAKE; +5 FT BRUSH 180-200 FT FM EOR 0 FT L.

Airport Ownership and Management from official FAA records

Ownership: Publicly-owned
Owner: COUNTY OF KERN DEPT OF AIRPORTS
3701 WINGS WAY, SUITE 300
BAKERSFIELD, CA 93308-7026
Phone 661-391-1800
OWNED BY US FOREST SVC ON LEASE TO KERN COUNTY.
Manager: RON BREWSTER
3701 WINGS WAY, SUITE 300
BAKERSFIELD, CA 93308-7026
Phone 661-391-1824
CELL 661-747-4053.

Airport Operational Statistics

Aircraft based on the field: 10
Single engine airplanes: 10
    
Aircraft operations: avg 32/day *
54% transient general aviation
44% local general aviation
2% military
* for 12-month period ending 11 April 2017

Additional Remarks

NO NIGHT OPERATIONS.
FLY-IN CAMPGROUND ON ARPT.

Instrument Procedures

There are no published instrument procedures at L05.

Some nearby airports with instrument procedures:

KIYK - Inyokern Airport (29 nm E)
KNID - China Lake Naval Air Weapons Station (Armitage Field) (36 nm E)
KBFL - Meadows Field Airport (36 nm SW)
KPTV - Porterville Municipal Airport (36 nm NW)
L45 - Bakersfield Municipal Airport (37 nm SW)
 
Loc | Ops | Rwys | IFR | FBO | Links
Com | Nav | Svcs | Stats | Notes

AirNav Hotels Sweepstakes
 
Area around L05 (Kern Valley Airport)
 
Road maps at: MapQuest Bing Google
 
Aerial photo
WARNING: Photo may not be current or correct
Aerial photo of L05 (Kern Valley Airport)
Photo courtesy of www.MarkHoltzman.com
Photo taken 12-Nov-2017
looking west.

Do you have a better or more recent aerial photo of Kern Valley Airport that you would like to share? If so, please send us your photo.

 
Sectional chart

 
Airport distance calculator
Flying to Kern Valley Airport? Find the distance to fly.

From to L05

Sunrise and sunset
Times for 24-Feb-2018
 Local
(UTC-8)
 Zulu
(UTC)
Morning civil twilight06:0514:05
Sunrise06:3114:31
Sunset17:4301:43
Evening civil twilight18:0902:09

Current date and time
Zulu (UTC)  24-Feb-2018 19:57:23
Local (UTC-8)  24-Feb-2018 11:57:23
 
METAR
KIYK 
30nm E 
SuperAWOS
241855Z AUTO 00000KT 06/M13 A3022
KBFL 
35nm SW 
241954Z 00000KT 10SM CLR 12/M06 A3038 RMK AO2 SLP287 T01171056
KTSP 
36nm S 
241935Z AUTO 32016KT 9SM CLR 04/M07 A3027 RMK AO2
KPTV 
36nm NW 
241856Z AUTO VRB03KT 10SM CLR 11/M04 A3042 RMK AO2 SLP314 T01111044
KDLO 
40nm W 
241935Z AUTO 30003KT 10SM CLR 10/M08 A3040 RMK AO2 T00961080
KMHV 
42nm S 
241920Z AUTO 26017KT 10SM CLR 10/M09 A3024 RMK A01
TAF
KBFL 
35nm SW 
241720Z 2418/2518 13006KT P6SM SKC FM242100 31009KT P6SM SCT080 FM250900 VRB04KT P6SM SKC
NOTAMs
Click for the latest NOTAMs
NOTAMs are issued by the DoD/FAA and will open in a separate window not controlled by AirNav.

 

 
 

Where to Eat: Catering, Restaurants, Food shops

  
 Business Name 
 
 Contact 
 
 Services / Description 
 
Distance
 
Comments
  
Airport Cafe 760-376-2852
no information available

If you are affiliated with Airport Cafe and would like to show here your services, contact info, web link, logo, and more, click here
on airport  
   3 read write
 

Would you like to see your business listed on this page?

 If your business provides an interesting product or service to pilots, flight crews, aircraft, or users of the Kern Valley Airport, you should consider listing it here.  To start the listing process, click on the button below
 
Add a business
 

Other Pages about Kern Valley Airport

Update a link
 
Copyright © AirNav, LLC. All rights reserved. Privacy Policy  Contact